FW5225 Weather Reports


time (UTC)temp
C
wind
direction
speed
KPH
gust
KPH
rain 1hr
cm
rain 24hr
cm
rain mn
cm
humidity
%
barometer
mb
20260902130504 28 250 0.0 0.0 0.00 0.00 0.00 48 1010.0
20260902130004 29 280 0.0 0.0 0.00 0.00 0.00 48 1009.9
20260902125504 29 280 0.0 0.0 0.00 0.00 0.00 47 1009.9
20260902125002 29 280 0.0 0.0 0.00 0.00 0.00 47 1009.8
20260902124501 29 280 0.0 3.2 0.00 0.00 0.00 47 1009.7
20260902124104 29 280 0.0 3.2 0.00 0.00 0.00 47 1009.6
20260902123559 29 236 0.0 3.2 0.00 0.00 0.00 46 1009.6
20260902123102 29 251 0.0 3.2 0.00 0.00 0.00 47 1009.6
20260902122600 29 219 0.0 3.2 0.00 0.00 0.00 46 1009.5
20260902122057 30 242 0.0 4.8 0.00 0.00 0.00 46 1009.4
20260902121610 30 279 0.0 6.4 0.00 0.00 0.00 46 1009.4
20260902121057 30 253 1.6 8.0 0.00 0.00 0.00 46 1009.3
20260902120555 30 254 1.6 9.7 0.00 0.00 0.00 46 1009.4
20260902120106 30 250 1.6 9.7 0.00 0.00 0.00 45 1009.4
20260902115555 30 317 4.8 9.7 0.00 0.00 0.00 46 1009.4
20260902115054 30 269 3.2 9.7 0.00 0.00 0.00 45 1009.3
20260902114612 30 213 1.6 6.4 0.00 0.00 0.00 45 1009.3
20260902114054 30 217 0.0 8.0 0.00 0.00 0.00 45 1009.3
20260902113553 30 244 1.6 8.0 0.00 0.00 0.00 45 1009.3
20260902113059 30 223 0.0 3.2 0.00 0.00 0.00 44 1009.2
20260902112552 30 234 0.0 4.8 0.00 0.00 0.00 44 1009.2
20260902112053 30 255 0.0 6.4 0.00 0.00 0.00 44 1009.1
20260902111600 30 242 0.0 6.4 0.00 0.00 0.00 43 1009.1
20260902111050 30 228 0.0 8.0 0.00 0.00 0.00 43 1009.1
20260902110550 30 256 0.0 8.0 0.00 0.00 0.00 43 1009.1
20260902110054 30 283 1.6 6.4 0.00 0.00 0.00 42 1009.1
20260902105549 30 277 1.6 6.4 0.00 0.00 0.00 42 1009.0
20260902105048 31 263 0.0 4.8 0.00 0.00 0.00 41 1009.0
20260902104548 31 269 0.0 6.4 0.00 0.00 0.00 41 1009.1
20260902104050 31 234 1.6 6.4 0.00 0.00 0.00 41 1009.1
20260902103549 31 240 0.0 9.7 0.00 0.00 0.00 41 1009.0
20260902103100 31 273 4.8 9.7 0.00 0.00 0.00 40 1009.1
20260902102546 31 268 3.2 6.4 0.00 0.00 0.00 41 1009.1
20260902102045 31 307 0.0 8.0 0.00 0.00 0.00 41 1009.1
20260902101544 31 277 3.2 8.0 0.00 0.00 0.00 40 1009.1
20260902101044 31 281 1.6 12.9 0.00 0.00 0.00 41 1009.1
20260902100547 31 271 4.8 12.9 0.00 0.00 0.00 41 1009.1
20260902100044 31 252 1.6 11.3 0.00 0.00 0.00 40 1009.1
20260902095544 31 257 3.2 11.3 0.00 0.00 0.00 40 1009.1
20260902095043 31 247 6.4 14.5 0.00 0.00 0.00 40 1009.0
20260902094548 31 315 4.8 14.5 0.00 0.00 0.00 40 1009.1
20260902094044 31 259 3.2 14.5 0.00 0.00 0.00 41 1009.1
20260902093544 31 263 8.0 14.5 0.00 0.00 0.00 41 1009.2
20260902093043 31 250 4.8 11.3 0.00 0.00 0.00 41 1009.1
20260902092543 31 252 3.2 11.3 0.00 0.00 0.00 42 1009.1
20260902092043 31 261 3.2 8.0 0.00 0.00 0.00 42 1009.1
20260902091550 31 255 1.6 14.5 0.00 0.00 0.00 41 1009.1
20260902091042 31 281 4.8 14.5 0.00 0.00 0.00 41 1009.1
20260902090543 31 250 4.8 12.9 0.00 0.00 0.00 42 1009.1
20260902090051 31 279 3.2 12.9 0.00 0.00 0.00 42 1009.2
20260902085540 31 272 3.2 14.5 0.00 0.00 0.00 42 1009.3
20260902085041 31 267 6.4 14.5 0.00 0.00 0.00 42 1009.2
20260902084541 31 277 3.2 12.9 0.00 0.00 0.00 42 1009.3
20260902084039 31 254 1.6 6.4 0.00 0.00 0.00 42 1009.3
20260902083539 31 270 1.6 9.7 0.00 0.00 0.00 42 1009.3
20260902083044 31 279 1.6 9.7 0.00 0.00 0.00 42 1009.4
20260902082539 31 241 3.2 9.7 0.00 0.00 0.00 42 1009.4
20260902082039 31 249 3.2 9.7 0.00 0.00 0.00 41 1009.4
20260902081541 32 277 0.0 12.9 0.00 0.00 0.00 41 1009.4
20260902081037 32 231 3.2 12.9 0.00 0.00 0.00 41 1009.4
20260902080537 32 248 3.2 11.3 0.00 0.00 0.00 41 1009.3
20260902080037 32 259 3.2 11.3 0.00 0.00 0.00 40 1009.4
20260902075537 32 284 3.2 11.3 0.00 0.00 0.00 40 1009.3
20260902075035 32 274 3.2 11.3 0.00 0.00 0.00 40 1009.3
20260902074545 32 265 4.8 11.3 0.00 0.00 0.00 40 1009.3
20260902074035 32 287 4.8 11.3 0.00 0.00 0.00 40 1009.1
20260902073534 32 254 3.2 9.7 0.00 0.00 0.00 40 1009.2
20260902073037 32 221 4.8 9.7 0.00 0.00 0.00 40 1009.2
20260902072532 32 237 3.2 11.3 0.00 0.00 0.00 40 1009.2
20260902072034 32 290 3.2 11.3 0.00 0.00 0.00 40 1009.1
20260902071531 32 248 3.2 11.3 0.00 0.00 0.00 40 1009.1
20260902071032 32 289 4.8 11.3 0.00 0.00 0.00 39 1009.1
20260902070530 32 269 4.8 16.1 0.00 0.00 0.00 39 1009.1
20260902070029 32 254 8.0 16.1 0.00 0.00 0.00 39 1009.0
20260902065529 32 284 4.8 9.7 0.00 0.00 0.00 40 1009.0
20260902065029 32 307 4.8 11.3 0.00 0.00 0.00 40 1009.0
20260902064533 32 228 4.8 11.3 0.00 0.00 0.00 40 1008.9
20260902064031 32 253 3.2 12.9 0.00 0.00 0.00 41 1008.9
20260902063530 31 254 6.4 12.9 0.00 0.00 0.00 41 1008.9
20260902063029 31 244 3.2 8.0 0.00 0.00 0.00 42 1008.9
20260902062530 31 256 0.0 3.2 0.00 0.00 0.00 42 1008.9
20260902062028 31 257 0.0 6.4 0.00 0.00 0.00 41 1008.9
20260902061539 31 267 1.6 6.4 0.00 0.00 0.00 41 1008.9
20260902061028 31 250 0.0 3.2 0.00 0.00 0.00 41 1008.9
20260902060527 31 263 0.0 3.2 0.00 0.00 0.00 41 1008.9
20260902060042 31 239 0.0 3.2 0.00 0.00 0.00 41 1008.9
20260902055528 31 254 0.0 3.2 0.00 0.00 0.00 40 1009.0
20260902055028 32 281 0.0 4.8 0.00 0.00 0.00 40 1009.1
20260902054537 32 244 0.0 4.8 0.00 0.00 0.00 40 1009.1
20260902054030 32 259 0.0 3.2 0.00 0.00 0.00 41 1009.1
20260902053527 32 223 0.0 3.2 0.00 0.00 0.00 41 1009.2
20260902053028 32 210 0.0 3.2 0.00 0.00 0.00 40 1009.2
20260902052526 32 221 0.0 3.2 0.00 0.00 0.00 41 1009.1
20260902052031 32 203 0.0 4.8 0.00 0.00 0.00 42 1009.2
20260902051526 32 209 0.0 8.0 0.00 0.00 0.00 41 1009.2
20260902051029 32 183 1.6 8.0 0.00 0.00 0.00 41 1009.2
20260902050526 32 185 1.6 8.0 0.00 0.00 0.00 42 1009.3
20260902050027 32 139 0.0 3.2 0.00 0.00 0.00 43 1009.2
20260902045525 32 234 0.0 0.0 0.00 0.00 0.00 46 1009.1
20260902045028 32 234 0.0 0.0 0.00 0.00 0.00 46 1009.1
20260902044525 32 234 0.0 0.0 0.00 0.00 0.00 47 1009.0
20260902044026 32 234 0.0 0.0 0.00 0.00 0.00 45 1009.0
20260902043525 32 234 0.0 0.0 0.00 0.00 0.00 45 1008.9
20260902043026 32 234 0.0 0.0 0.00 0.00 0.00 44 1008.8
20260902042525 32 234 0.0 0.0 0.00 0.00 0.00 43 1008.8
20260902042024 32 234 0.0 0.0 0.00 0.00 0.00 46 1008.7
20260902041528 33 155 0.0 0.0 0.00 0.00 0.00 44 1008.7
20260902041025 33 155 0.0 0.0 0.00 0.00 0.00 45 1008.6
20260902040524 33 155 0.0 0.0 0.00 0.00 0.00 44 1008.5
20260902040024 33 155 0.0 0.0 0.00 0.00 0.00 43 1008.5
20260902035523 33 155 0.0 0.0 0.00 0.00 0.00 41 1008.4
20260902035023 33 161 0.0 0.0 0.00 0.00 0.00 39 1008.3
20260902034526 33 161 0.0 3.2 0.00 0.00 0.00 39 1008.2
20260902034025 33 153 0.0 3.2 0.00 0.00 0.00 38 1008.1
20260902033525 33 197 0.0 3.2 0.00 0.00 0.00 37 1008.0
20260902033023 33 171 0.0 3.2 0.00 0.00 0.00 36 1008.0
20260902032524 33 162 0.0 3.2 0.00 0.00 0.00 36 1007.9
20260902032022 34 169 0.0 3.2 0.00 0.00 0.00 36 1007.8
20260902031522 34 228 0.0 0.0 0.00 0.00 0.00 36 1007.8
20260902031022 34 228 0.0 0.0 0.00 0.00 0.00 36 1007.8
20260902030522 34 228 0.0 1.6 0.00 0.00 0.00 36 1007.7
20260902030021 35 228 0.0 1.6 0.00 0.00 0.00 34 1007.5
20260902025521 35 228 0.0 0.0 0.00 0.00 0.00 33 1007.4
20260902025022 35 228 0.0 0.0 0.00 0.00 0.00 32 1007.3
20260902024521 35 228 0.0 0.0 0.00 0.00 0.00 32 1007.3
20260902024025 35 228 0.0 3.2 0.00 0.00 0.00 32 1007.3
20260902023521 35 228 0.0 4.8 0.00 0.00 0.00 31 1007.3
20260902023021 35 275 1.6 4.8 0.00 0.00 0.00 31 1007.2
20260902022521 35 261 0.0 3.2 0.00 0.00 0.00 31 1007.2
20260902022020 35 200 0.0 3.2 0.00 0.00 0.00 31 1007.1
20260902021520 35 230 0.0 4.8 0.00 0.00 0.00 30 1007.1
20260902021020 35 267 0.0 4.8 0.00 0.00 0.00 30 1007.1
20260902020520 36 234 0.0 4.8 0.00 0.00 0.00 31 1007.1
20260902020019 36 234 0.0 4.8 0.00 0.00 0.00 30 1007.2
20260902015519 36 217 0.0 3.2 0.00 0.00 0.00 30 1007.1
20260902015019 36 190 0.0 3.2 0.00 0.00 0.00 30 1007.2
20260902014526 36 161 0.0 3.2 0.00 0.00 0.00 30 1007.1
20260902014019 36 219 0.0 3.2 0.00 0.00 0.00 30 1007.1
20260902013519 37 225 0.0 3.2 0.00 0.00 0.00 30 1007.1
20260902013019 37 150 0.0 6.4 0.00 0.00 0.00 30 1007.1
20260902012519 37 272 1.6 6.4 0.00 0.00 0.00 29 1007.1
20260902012019 37 190 0.0 3.2 0.00 0.00 0.00 29 1007.0
20260902011518 37 157 0.0 4.8 0.00 0.00 0.00 29 1007.0
20260902011017 37 263 0.0 4.8 0.00 0.00 0.00 29 1006.9
20260902010516 37 282 1.6 6.4 0.00 0.00 0.00 29 1007.0
20260902010028 37 227 1.6 8.0 0.00 0.00 0.00 29 1007.1
20260902005516 37 165 1.6 11.3 0.00 0.00 0.00 30 1007.1
20260902005017 38 300 4.8 11.3 0.00 0.00 0.00 28 1007.1
20260902004514 38 295 3.2 8.0 0.00 0.00 0.00 28 1007.3
20260902004014 38 150 0.0 9.7 0.00 0.00 0.00 28 1007.3
20260902003513 38 290 3.2 9.7 0.00 0.00 0.00 28 1007.4
20260902003016 38 253 3.2 8.0 0.00 0.00 0.00 28 1007.4
20260902002512 38 217 1.6 4.8 0.00 0.00 0.00 28 1007.5
20260902002012 38 143 0.0 4.8 0.00 0.00 0.00 29 1007.5
20260902001516 38 233 1.6 4.8 0.00 0.00 0.00 29 1007.5
20260902001011 38 241 1.6 4.8 0.00 0.00 0.00 29 1007.6
20260902000510 38 159 1.6 6.4 0.00 0.00 0.00 30 1007.6
20260902000019 38 226 1.6 6.4 0.00 0.00 0.00 30 1007.5
20260901235510 38 227 1.6 6.4 0.00 0.00 0.00 30 1007.6
20260901235008 38 115 1.6 12.9 0.00 0.00 0.00 30 1007.7
20260901234508 38 145 1.6 12.9 0.00 0.00 0.00 31 1007.8
20260901234008 38 78 0.0 6.4 0.00 0.00 0.00 32 1007.9
20260901233507 38 87 1.6 8.0 0.00 0.00 0.00 32 1007.9
20260901233007 38 128 0.0 11.3 0.00 0.00 0.00 31 1008.0
20260901232506 38 121 1.6 11.3 0.00 0.00 0.00 31 1008.0
20260901232005 38 123 1.6 8.0 0.00 0.00 0.00 31 1008.1
20260901231506 38 211 1.6 8.0 0.00 0.00 0.00 31 1008.1
20260901231004 38 211 3.2 8.0 0.00 0.00 0.00 30 1008.0
20260901230505 38 107 1.6 8.0 0.00 0.00 0.00 31 1008.1
20260901230009 38 123 0.0 8.0 0.00 0.00 0.00 31 1008.2
20260901225503 38 161 0.0 8.0 0.00 0.00 0.00 31 1008.3
20260901225003 38 208 1.6 12.9 0.00 0.00 0.00 31 1008.3
20260901224503 38 277 3.2 12.9 0.00 0.00 0.00 31 1008.4
20260901224002 38 209 3.2 6.4 0.00 0.00 0.00 31 1008.4
20260901223502 38 306 1.6 6.4 0.00 0.00 0.00 31 1008.4
20260901223002 38 201 0.0 8.0 0.00 0.00 0.00 31 1008.5
20260901222600 38 190 3.2 11.3 0.00 0.00 0.00 31 1008.6
20260901222059 38 279 4.8 11.3 0.00 0.00 0.00 30 1008.7
20260901221559 38 230 3.2 11.3 0.00 0.00 0.00 31 1008.7
20260901221059 38 211 3.2 8.0 0.00 0.00 0.00 31 1008.7
20260901220557 38 155 3.2 8.0 0.00 0.00 0.00 30 1008.8
20260901220115 38 180 1.6 9.7 0.00 0.00 0.00 31 1008.9
20260901215556 37 182 1.6 14.5 0.00 0.00 0.00 31 1009.0
20260901215056 38 292 6.4 14.5 0.00 0.00 0.00 31 1009.0
20260901214557 38 296 3.2 11.3 0.00 0.00 0.00 31 1009.1
20260901214054 38 179 3.2 11.3 0.00 0.00 0.00 31 1009.2
20260901213559 38 227 3.2 11.3 0.00 0.00 0.00 32 1009.3
20260901213054 37 167 4.8 11.3 0.00 0.00 0.00 33 1009.4
20260901212553 37 142 3.2 17.7 0.00 0.00 0.00 33 1009.5
20260901212049 37 157 1.6 11.3 0.00 0.00 0.00 33 1009.6
20260901211549 37 150 3.2 8.0 0.00 0.00 0.00 33 1009.7
20260901211048 38 310 1.6 11.3 0.00 0.00 0.00 33 1009.8
20260901210547 37 177 1.6 11.3 0.00 0.00 0.00 33 1009.9
20260901210048 37 185 4.8 12.9 0.00 0.00 0.00 34 1010.0
20260901205545 37 265 3.2 11.3 0.00 0.00 0.00 34 1010.0
20260901205044 37 180 4.8 11.3 0.00 0.00 0.00 34 1010.1
20260901204543 37 122 0.0 6.4 0.00 0.00 0.00 35 1010.2
20260901204045 37 273 0.0 9.7 0.00 0.00 0.00 35 1010.3
20260901203545 37 225 3.2 9.7 0.00 0.00 0.00 35 1010.4
20260901203047 36 166 1.6 11.3 0.00 0.00 0.00 36 1010.4
20260901202539 37 145 4.8 11.3 0.00 0.00 0.00 36 1010.5
20260901202041 36 135 6.4 12.9 0.00 0.00 0.00 36 1010.6
20260901201541 36 81 0.0 6.4 0.00 0.00 0.00 36 1010.6
20260901201037 36 197 1.6 6.4 0.00 0.00 0.00 37 1010.7
20260901200535 36 184 3.2 6.4 0.00 0.00 0.00 37 1010.7
20260901200035 36 233 1.6 11.3 0.00 0.00 0.00 37 1010.9
20260901195534 36 200 1.6 11.3 0.00 0.00 0.00 38 1010.9
20260901195033 35 146 0.0 6.4 0.00 0.00 0.00 38 1011.0
20260901194538 36 217 1.6 11.3 0.00 0.00 0.00 38 1011.0
20260901194031 35 192 3.2 11.3 0.00 0.00 0.00 38 1011.1
20260901193532 35 152 1.6 8.0 0.00 0.00 0.00 38 1011.1
20260901193031 35 210 1.6 14.5 0.00 0.00 0.00 39 1011.2
20260901192530 35 74 8.0 14.5 0.00 0.00 0.00 37 1011.2
20260901192029 35 121 3.2 9.7 0.00 0.00 0.00 38 1011.2
20260901191528 35 182 0.0 9.7 0.00 0.00 0.00 39 1011.4
20260901191032 35 155 3.2 8.0 0.00 0.00 0.00 40 1011.4
20260901190527 35 153 1.6 12.9 0.00 0.00 0.00 39 1011.5
20260901190025 34 153 3.2 16.1 0.00 0.00 0.00 40 1011.6
20260901185525 34 123 3.2 14.5 0.00 0.00 0.00 41 1011.6
20260901185026 34 88 3.2 8.0 0.00 0.00 0.00 40 1011.8
20260901184521 34 82 1.6 11.3 0.00 0.00 0.00 41 1011.8
20260901184020 33 110 4.8 12.9 0.00 0.00 0.00 41 1011.9
20260901183518 33 346 1.6 6.4 0.00 0.00 0.00 41 1012.0
20260901183019 33 293 0.0 8.0 0.00 0.00 0.00 43 1012.1
20260901182517 33 51 1.6 8.0 0.00 0.00 0.00 41 1012.2
20260901182014 33 173 0.0 12.9 0.00 0.00 0.00 43 1012.2
20260901181517 33 82 3.2 12.9 0.00 0.00 0.00 43 1012.3
20260901181012 33 117 4.8 11.3 0.00 0.00 0.00 43 1012.3
20260901180513 33 150 1.6 6.4 0.00 0.00 0.00 43 1012.3
20260901180009 33 238 1.6 6.4 0.00 0.00 0.00 44 1012.3
20260901175509 32 155 1.6 6.4 0.00 0.00 0.00 44 1012.4
20260901175007 32 303 0.0 8.0 0.00 0.00 0.00 45 1012.4
20260901174506 32 57 1.6 9.7 0.00 0.00 0.00 45 1012.5
20260901174004 32 110 4.8 11.3 0.00 0.00 0.00 45 1012.5
20260901173504 32 94 1.6 9.7 0.00 0.00 0.00 45 1012.6
20260901173002 32 105 3.2 11.3 0.00 0.00 0.00 45 1012.6
20260901172501 32 104 4.8 9.7 0.00 0.00 0.00 46 1012.7
20260901172059 32 96 3.2 9.7 0.00 0.00 0.00 45 1012.7
20260901171558 31 148 0.0 8.0 0.00 0.00 0.00 47 1012.6
20260901171056 31 102 0.0 8.0 0.00 0.00 0.00 47 1012.7
20260901170555 31 71 3.2 8.0 0.00 0.00 0.00 47 1012.7
20260901170116 31 167 3.2 11.3 0.00 0.00 0.00 47 1012.7
20260901165552 31 59 1.6 11.3 0.00 0.00 0.00 48 1012.6
20260901165051 31 88 3.2 9.7 0.00 0.00 0.00 48 1012.6
20260901164552 31 58 1.6 6.4 0.00 0.00 0.00 49 1012.6
20260901164048 30 40 0.0 9.7 0.00 0.00 0.00 49 1012.6
20260901163548 30 34 3.2 8.0 0.00 0.00 0.00 49 1012.6
20260901163047 30 97 0.0 8.0 0.00 0.00 0.00 49 1012.6
20260901162546 30 67 1.6 8.0 0.00 0.00 0.00 50 1012.5
20260901162044 30 53 0.0 4.8 0.00 0.00 0.00 50 1012.5
20260901161543 30 113 1.6 9.7 0.00 0.00 0.00 51 1012.4
20260901161043 30 44 3.2 9.7 0.00 0.00 0.00 50 1012.5
20260901160541 30 86 0.0 9.7 0.00 0.00 0.00 50 1012.4
20260901160050 30 45 3.2 9.7 0.00 0.00 0.00 50 1012.4
20260901155540 30 163 1.6 4.8 0.00 0.00 0.00 51 1012.4
20260901155037 30 64 0.0 4.8 0.00 0.00 0.00 52 1012.4
20260901154537 29 86 3.2 4.8 0.00 0.00 0.00 52 1012.4
20260901154036 29 77 0.0 6.4 0.00 0.00 0.00 52 1012.4
20260901153536 29 160 3.2 8.0 0.00 0.00 0.00 52 1012.4
20260901153033 29 137 1.6 8.0 0.00 0.00 0.00 51 1012.3
20260901152533 29 89 1.6 8.0 0.00 0.00 0.00 52 1012.4
20260901152035 28 121 1.6 8.0 0.00 0.00 0.00 53 1012.4
20260901151530 28 85 1.6 9.7 0.00 0.00 0.00 54 1012.2
20260901151028 28 105 1.6 9.7 0.00 0.00 0.00 54 1012.2
20260901150526 28 74 3.2 8.0 0.00 0.00 0.00 55 1012.2
20260901150037 28 53 4.8 11.3 0.00 0.00 0.00 55 1012.2
20260901145523 27 69 4.8 11.3 0.00 0.00 0.00 55 1012.2
20260901145023 27 40 3.2 6.4 0.00 0.00 0.00 57 1012.2
20260901144521 27 42 3.2 6.4 0.00 0.00 0.00 58 1012.0
20260901144020 27 42 3.2 6.4 0.00 0.00 0.00 59 1012.0
20260901143518 27 36 3.2 8.0 0.00 0.00 0.00 60 1012.0
20260901143017 27 36 1.6 9.7 0.00 0.00 0.00 61 1011.9
20260901142517 26 23 4.8 9.7 0.00 0.00 0.00 61 1011.9
20260901142014 26 360 3.2 9.7 0.00 0.00 0.00 62 1011.9
20260901141513 26 37 4.8 9.7 0.00 0.00 0.00 62 1012.0
20260901141011 26 38 3.2 9.7 0.00 0.00 0.00 62 1011.9
20260901140510 26 34 3.2 8.0 0.00 0.00 0.00 62 1011.9
20260901140011 26 47 3.2 8.0 0.00 0.00 0.00 62 1011.9
20260901135508 26 51 4.8 8.0 0.00 0.00 0.00 62 1011.8
20260901135007 26 46 4.8 8.0 0.00 0.00 0.00 62 1011.7
20260901134505 26 26 3.2 8.0 0.00 0.00 0.00 62 1011.7
20260901134007 26 46 3.2 6.4 0.00 0.00 0.00 62 1011.6
20260901133503 26 44 1.6 4.8 0.00 0.00 0.00 62 1011.6
20260901133007 26 57 1.6 4.8 0.00 0.00 0.00 63 1011.5
20260901132502 26 38 1.6 6.4 0.00 0.00 0.00 62 1011.5
20260901132103 26 49 3.2 6.4 0.00 0.00 0.00 62 1011.5
20260901132001 26 38 3.2 6.4 0.00 0.00 0.00 62 1011.5
20260901131602 26 41 0.0 6.4 0.00 0.00 0.00 62 1011.4
20260901131103 25 50 0.0 6.4 0.00 0.00 0.00 62 1011.4